| time (UTC) | temp F | wind direction | speed MPH | gust MPH | rain 1hr in | rain 24hr in | rain mn in | humidity % | barometer mb |
| 20260831102225 | 66 | 92 | 1.0 | 2.0 | 0.00 | 0.00 | 0.00 | 45 | 1017.7 |
| 20260831101718 | 66 | 92 | 0.0 | 2.0 | 0.00 | 0.00 | 0.00 | 45 | 1017.7 |
| 20260831101253 | 67 | 92 | 0.0 | 3.0 | 0.00 | 0.00 | 0.00 | 40 | 1017.7 |
| 20260831100725 | 69 | 92 | 0.0 | 4.0 | 0.00 | 0.00 | 0.00 | 36 | 1017.7 |
| 20260831100220 | 71 | 92 | 2.0 | 7.0 | 0.00 | 0.00 | 0.00 | 31 | 1017.6 |
| 20260831095733 | 71 | 92 | 3.0 | 7.0 | 0.00 | 0.00 | 0.00 | 29 | 1017.6 |
| 20260831095227 | 71 | 92 | 4.0 | 7.0 | 0.00 | 0.00 | 0.00 | 29 | 1017.5 |
| 20260831094725 | 69 | 92 | 3.0 | 7.0 | 0.00 | 0.00 | 0.00 | 32 | 1017.4 |
| 20260831094218 | 68 | 92 | 3.0 | 8.0 | 0.00 | 0.00 | 0.00 | 34 | 1017.4 |
| 20260831093732 | 68 | 92 | 4.0 | 8.0 | 0.00 | 0.00 | 0.00 | 34 | 1017.4 |
| 20260831093225 | 68 | 92 | 3.0 | 6.0 | 0.00 | 0.00 | 0.00 | 34 | 1017.3 |
| 20260831092718 | 68 | 92 | 3.0 | 8.0 | 0.00 | 0.00 | 0.00 | 34 | 1017.3 |
| 20260831092233 | 69 | 92 | 5.0 | 8.0 | 0.00 | 0.00 | 0.00 | 34 | 1017.3 |
| 20260831091726 | 69 | 92 | 5.0 | 8.0 | 0.00 | 0.00 | 0.00 | 33 | 1017.2 |
| 20260831091217 | 69 | 92 | 5.0 | 10.0 | 0.00 | 0.00 | 0.00 | 34 | 1017.3 |
| 20260831090715 | 69 | 92 | 6.0 | 10.0 | 0.00 | 0.00 | 0.00 | 34 | 1017.2 |
| 20260831090231 | 68 | 92 | 7.0 | 10.0 | 0.00 | 0.00 | 0.00 | 34 | 1017.2 |
| 20260831085724 | 69 | 92 | 4.0 | 9.0 | 0.00 | 0.00 | 0.00 | 33 | 1017.1 |
| 20260831085218 | 69 | 92 | 6.0 | 10.0 | 0.00 | 0.00 | 0.00 | 32 | 1017.1 |
| 20260831084732 | 69 | 92 | 9.0 | 10.0 | 0.00 | 0.00 | 0.00 | 32 | 1017.2 |
| 20260831084246 | 69 | 92 | 6.0 | 8.0 | 0.00 | 0.00 | 0.00 | 32 | 1017.1 |
| 20260831083720 | 68 | 92 | 6.0 | 8.0 | 0.00 | 0.00 | 0.00 | 33 | 1017.1 |
| 20260831083214 | 69 | 92 | 5.0 | 7.0 | 0.00 | 0.00 | 0.00 | 33 | 1017.3 |
| 20260831082731 | 69 | 92 | 5.0 | 8.0 | 0.00 | 0.00 | 0.00 | 33 | 1017.3 |
| 20260831082225 | 69 | 92 | 5.0 | 8.0 | 0.00 | 0.00 | 0.00 | 33 | 1017.3 |
| 20260831081719 | 69 | 92 | 4.0 | 9.0 | 0.00 | 0.00 | 0.00 | 34 | 1017.3 |
| 20260831081233 | 70 | 92 | 6.0 | 10.0 | 0.00 | 0.00 | 0.00 | 33 | 1017.3 |
| 20260831080727 | 71 | 92 | 6.0 | 10.0 | 0.00 | 0.00 | 0.00 | 33 | 1017.3 |
| 20260831080221 | 72 | 92 | 6.0 | 13.0 | 0.00 | 0.00 | 0.00 | 32 | 1017.4 |
| 20260831075715 | 71 | 92 | 8.0 | 13.0 | 0.00 | 0.03 | 0.00 | 31 | 1017.4 |
| 20260831075229 | 71 | 92 | 6.0 | 14.0 | 0.00 | 0.03 | 0.00 | 33 | 1017.4 |
| 20260831074727 | 72 | 92 | 9.0 | 14.0 | 0.00 | 0.03 | 0.00 | 33 | 1017.6 |
| 20260831074221 | 72 | 89 | 8.0 | 13.0 | 0.00 | 0.03 | 0.00 | 34 | 1017.5 |
| 20260831073715 | 72 | 89 | 8.0 | 13.0 | 0.00 | 0.03 | 0.00 | 34 | 1017.5 |
| 20260831073229 | 72 | 89 | 7.0 | 14.0 | 0.00 | 0.03 | 0.00 | 32 | 1017.6 |
| 20260831072722 | 72 | 87 | 9.0 | 14.0 | 0.00 | 0.03 | 0.00 | 34 | 1017.5 |
| 20260831072237 | 71 | 84 | 7.0 | 10.0 | 0.00 | 0.03 | 0.00 | 35 | 1017.5 |
| 20260831071730 | 71 | 84 | 5.0 | 10.0 | 0.00 | 0.03 | 0.00 | 37 | 1017.5 |
| 20260831071224 | 71 | 84 | 7.0 | 10.0 | 0.00 | 0.03 | 0.00 | 36 | 1017.6 |
| 20260831070737 | 70 | 84 | 6.0 | 9.0 | 0.00 | 0.03 | 0.00 | 37 | 1017.6 |
| 20260831070235 | 70 | 84 | 3.0 | 6.0 | 0.00 | 0.03 | 0.00 | 37 | 1017.6 |
| 20260831065727 | 70 | 84 | 3.0 | 6.0 | 0.00 | 0.04 | 0.00 | 37 | 1017.6 |
| 20260831065221 | 70 | 84 | 3.0 | 8.0 | 0.00 | 0.04 | 0.00 | 39 | 1017.5 |
| 20260831064715 | 71 | 84 | 4.0 | 11.0 | 0.00 | 0.04 | 0.00 | 38 | 1017.5 |
| 20260831064229 | 71 | 84 | 5.0 | 11.0 | 0.00 | 0.04 | 0.00 | 38 | 1017.6 |
| 20260831063723 | 71 | 84 | 6.0 | 10.0 | 0.00 | 0.04 | 0.00 | 37 | 1017.5 |
| 20260831063217 | 72 | 84 | 6.0 | 10.0 | 0.00 | 0.04 | 0.00 | 38 | 1017.6 |
| 20260831062731 | 72 | 84 | 5.0 | 10.0 | 0.00 | 0.04 | 0.00 | 38 | 1017.6 |
| 20260831062229 | 71 | 84 | 5.0 | 9.0 | 0.00 | 0.04 | 0.00 | 38 | 1017.6 |
| 20260831061742 | 72 | 84 | 4.0 | 9.0 | 0.00 | 0.04 | 0.00 | 37 | 1017.6 |
| 20260831061215 | 72 | 84 | 5.0 | 10.0 | 0.00 | 0.04 | 0.00 | 36 | 1017.6 |
| 20260831060729 | 73 | 84 | 4.0 | 10.0 | 0.00 | 0.04 | 0.00 | 36 | 1017.7 |
| 20260831060225 | 73 | 84 | 5.0 | 13.0 | 0.00 | 0.04 | 0.00 | 35 | 1017.6 |
| 20260831055738 | 73 | 84 | 8.0 | 13.0 | 0.00 | 0.04 | 0.04 | 36 | 1017.6 |
| 20260831055252 | 73 | 82 | 7.0 | 13.0 | 0.00 | 0.04 | 0.04 | 36 | 1017.7 |
| 20260831054724 | 72 | 81 | 8.0 | 13.0 | 0.00 | 0.04 | 0.04 | 38 | 1017.6 |
| 20260831054238 | 71 | 69 | 5.0 | 10.0 | 0.00 | 0.04 | 0.04 | 41 | 1017.6 |
| 20260831053731 | 70 | 69 | 5.0 | 8.0 | 0.00 | 0.04 | 0.04 | 41 | 1017.6 |
| 20260831053245 | 70 | 69 | 4.0 | 6.0 | 0.00 | 0.04 | 0.04 | 41 | 1017.6 |
| 20260831052722 | 70 | 69 | 3.0 | 6.0 | 0.00 | 0.04 | 0.04 | 42 | 1017.6 |
| 20260831052216 | 72 | 69 | 3.0 | 11.0 | 0.00 | 0.04 | 0.04 | 39 | 1017.6 |
| 20260831051729 | 72 | 69 | 4.0 | 13.0 | 0.00 | 0.04 | 0.04 | 38 | 1017.6 |
| 20260831051224 | 72 | 69 | 8.0 | 13.0 | 0.00 | 0.04 | 0.04 | 38 | 1017.6 |
| 20260831050718 | 72 | 68 | 8.0 | 13.0 | 0.00 | 0.04 | 0.04 | 38 | 1017.6 |
| 20260831050233 | 72 | 57 | 5.0 | 12.0 | 0.00 | 0.04 | 0.04 | 38 | 1017.6 |
| 20260831045747 | 72 | 57 | 6.0 | 12.0 | 0.00 | 0.04 | 0.04 | 37 | 1017.6 |
| 20260831045220 | 73 | 57 | 6.0 | 12.0 | 0.00 | 0.04 | 0.04 | 36 | 1017.5 |
| 20260831044714 | 73 | 57 | 7.0 | 12.0 | 0.00 | 0.04 | 0.04 | 35 | 1017.5 |
| 20260831044248 | 73 | 57 | 8.0 | 12.0 | 0.00 | 0.04 | 0.04 | 35 | 1017.6 |
| 20260831043724 | 73 | 46 | 7.0 | 11.0 | 0.00 | 0.04 | 0.04 | 35 | 1017.6 |
| 20260831043238 | 74 | 46 | 6.0 | 10.0 | 0.00 | 0.04 | 0.04 | 35 | 1017.7 |
| 20260831042731 | 74 | 46 | 5.0 | 12.0 | 0.00 | 0.04 | 0.04 | 33 | 1017.7 |
| 20260831042225 | 74 | 46 | 7.0 | 12.0 | 0.00 | 0.04 | 0.04 | 32 | 1017.6 |
| 20260831041718 | 74 | 44 | 6.0 | 12.0 | 0.00 | 0.04 | 0.04 | 34 | 1017.6 |
| 20260831041253 | 74 | 42 | 7.0 | 12.0 | 0.00 | 0.04 | 0.04 | 34 | 1017.6 |
| 20260831040725 | 74 | 40 | 7.0 | 12.0 | 0.00 | 0.04 | 0.04 | 33 | 1017.6 |
| 20260831040220 | 74 | 35 | 5.0 | 11.0 | 0.00 | 0.04 | 0.04 | 34 | 1017.6 |
| 20260831035714 | 73 | 34 | 6.0 | 11.0 | 0.00 | 0.04 | 0.04 | 36 | 1017.5 |
| 20260831035228 | 72 | 30 | 4.0 | 9.0 | 0.00 | 0.04 | 0.04 | 39 | 1017.4 |
| 20260831034725 | 73 | 30 | 5.0 | 8.0 | 0.00 | 0.04 | 0.04 | 39 | 1017.3 |
| 20260831034219 | 73 | 30 | 3.0 | 6.0 | 0.00 | 0.04 | 0.04 | 39 | 1017.1 |
| 20260831033713 | 72 | 30 | 2.0 | 4.0 | 0.00 | 0.04 | 0.04 | 40 | 1017.0 |
| 20260831033228 | 73 | 30 | 2.0 | 6.0 | 0.00 | 0.04 | 0.04 | 38 | 1017.0 |
| 20260831032722 | 74 | 30 | 3.0 | 8.0 | 0.00 | 0.04 | 0.04 | 37 | 1016.9 |
| 20260831032216 | 74 | 30 | 5.0 | 8.0 | 0.00 | 0.04 | 0.04 | 36 | 1016.9 |
| 20260831031729 | 74 | 30 | 3.0 | 8.0 | 0.00 | 0.04 | 0.04 | 35 | 1016.9 |
| 20260831031228 | 73 | 30 | 3.0 | 8.0 | 0.00 | 0.04 | 0.04 | 36 | 1016.9 |
| 20260831030722 | 72 | 30 | 3.0 | 4.0 | 0.00 | 0.04 | 0.04 | 36 | 1016.8 |
| 20260831030217 | 72 | 30 | 2.0 | 5.0 | 0.00 | 0.04 | 0.04 | 37 | 1016.7 |
| 20260831025730 | 73 | 30 | 1.0 | 5.0 | 0.00 | 0.04 | 0.04 | 37 | 1016.7 |
| 20260831025224 | 74 | 30 | 4.0 | 6.0 | 0.00 | 0.04 | 0.04 | 33 | 1016.6 |
| 20260831024718 | 74 | 30 | 4.0 | 6.0 | 0.00 | 0.04 | 0.04 | 31 | 1016.6 |
| 20260831024232 | 74 | 30 | 3.0 | 8.0 | 0.00 | 0.04 | 0.04 | 30 | 1016.6 |
| 20260831023725 | 74 | 30 | 4.0 | 9.0 | 0.00 | 0.04 | 0.04 | 30 | 1016.5 |
| 20260831023218 | 75 | 30 | 5.0 | 9.0 | 0.00 | 0.04 | 0.04 | 29 | 1016.4 |
| 20260831022716 | 75 | 30 | 5.0 | 10.0 | 0.00 | 0.04 | 0.04 | 29 | 1016.4 |
| 20260831022231 | 75 | 30 | 6.0 | 10.0 | 0.00 | 0.04 | 0.04 | 30 | 1016.5 |
| 20260831021724 | 75 | 30 | 6.0 | 9.0 | 0.00 | 0.04 | 0.04 | 30 | 1016.4 |
| 20260831021218 | 75 | 30 | 4.0 | 9.0 | 0.00 | 0.04 | 0.04 | 30 | 1016.4 |
| 20260831020732 | 76 | 30 | 4.0 | 8.0 | 0.00 | 0.04 | 0.04 | 29 | 1016.5 |
| 20260831020227 | 76 | 30 | 4.0 | 10.0 | 0.00 | 0.04 | 0.04 | 29 | 1016.4 |
| 20260831015720 | 76 | 30 | 3.0 | 10.0 | 0.00 | 0.05 | 0.04 | 30 | 1016.4 |
| 20260831015235 | 77 | 30 | 5.0 | 10.0 | 0.00 | 0.05 | 0.04 | 30 | 1016.4 |
| 20260831014731 | 77 | 30 | 5.0 | 10.0 | 0.00 | 0.05 | 0.04 | 29 | 1016.4 |
| 20260831014245 | 77 | 30 | 4.0 | 9.0 | 0.00 | 0.05 | 0.04 | 31 | 1016.4 |
| 20260831013718 | 77 | 30 | 3.0 | 9.0 | 0.00 | 0.05 | 0.04 | 31 | 1016.4 |
| 20260831013232 | 77 | 30 | 4.0 | 9.0 | 0.00 | 0.05 | 0.04 | 32 | 1016.4 |
| 20260831012725 | 77 | 30 | 3.0 | 9.0 | 0.00 | 0.05 | 0.04 | 34 | 1016.4 |
| 20260831012219 | 77 | 30 | 4.0 | 9.0 | 0.00 | 0.05 | 0.04 | 33 | 1016.4 |
| 20260831011713 | 77 | 30 | 4.0 | 10.0 | 0.00 | 0.05 | 0.04 | 34 | 1016.5 |
| 20260831011227 | 77 | 30 | 5.0 | 10.0 | 0.00 | 0.05 | 0.04 | 34 | 1016.4 |
| 20260831010741 | 77 | 30 | 7.0 | 12.0 | 0.00 | 0.05 | 0.04 | 33 | 1016.5 |
| 20260831010220 | 77 | 30 | 6.0 | 12.0 | 0.00 | 0.05 | 0.04 | 33 | 1016.5 |
| 20260831005714 | 77 | 30 | 9.0 | 13.0 | 0.00 | 0.06 | 0.04 | 33 | 1016.5 |
| 20260831005228 | 77 | 30 | 9.0 | 13.0 | 0.00 | 0.06 | 0.04 | 34 | 1016.6 |
| 20260831004722 | 77 | 30 | 10.0 | 13.0 | 0.00 | 0.06 | 0.04 | 34 | 1016.6 |
| 20260831004216 | 77 | 30 | 7.0 | 15.0 | 0.00 | 0.06 | 0.04 | 37 | 1016.7 |
| 20260831003730 | 76 | 30 | 10.0 | 15.0 | 0.00 | 0.06 | 0.04 | 36 | 1016.7 |
| 20260831003225 | 77 | 26 | 11.0 | 15.0 | 0.00 | 0.06 | 0.04 | 35 | 1016.7 |
| 20260831002718 | 77 | 5 | 7.0 | 12.0 | 0.00 | 0.06 | 0.04 | 34 | 1016.6 |
| 20260831002236 | 77 | 5 | 5.0 | 12.0 | 0.00 | 0.06 | 0.04 | 36 | 1016.6 |
| 20260831001729 | 77 | 5 | 9.0 | 16.0 | 0.00 | 0.06 | 0.04 | 34 | 1016.6 |
| 20260831001221 | 77 | 360 | 7.0 | 16.0 | 0.00 | 0.06 | 0.04 | 32 | 1016.6 |
| 20260831000715 | 80 | 344 | 10.0 | 15.0 | 0.00 | 0.06 | 0.04 | 31 | 1016.6 |
| 20260831000230 | 81 | 5 | 7.0 | 14.0 | 0.00 | 0.06 | 0.04 | 30 | 1016.4 |
| 20260830235723 | 80 | 59 | 3.0 | 6.0 | 0.00 | 0.06 | 0.04 | 27 | 1016.4 |
| 20260830235217 | 81 | 59 | 3.0 | 6.0 | 0.00 | 0.06 | 0.04 | 27 | 1016.4 |
| 20260830234751 | 81 | 59 | 3.0 | 10.0 | 0.00 | 0.06 | 0.04 | 26 | 1016.4 |
| 20260830234223 | 82 | 59 | 5.0 | 10.0 | 0.00 | 0.06 | 0.04 | 26 | 1016.5 |
| 20260830233717 | 80 | 63 | 2.0 | 8.0 | 0.00 | 0.06 | 0.04 | 26 | 1016.5 |
| 20260830233216 | 80 | 63 | 4.0 | 8.0 | 0.00 | 0.06 | 0.04 | 29 | 1016.5 |
| 20260830232730 | 80 | 63 | 3.0 | 5.0 | 0.00 | 0.06 | 0.04 | 25 | 1016.5 |
| 20260830232224 | 79 | 63 | 2.0 | 6.0 | 0.00 | 0.06 | 0.04 | 29 | 1016.6 |
| 20260830231718 | 79 | 63 | 4.0 | 6.0 | 0.00 | 0.06 | 0.04 | 26 | 1016.6 |
| 20260830231252 | 80 | 63 | 2.0 | 4.0 | 0.00 | 0.06 | 0.04 | 26 | 1016.4 |
| 20260830230724 | 80 | 63 | 1.0 | 4.0 | 0.00 | 0.06 | 0.04 | 27 | 1016.4 |
| 20260830230219 | 81 | 63 | 2.0 | 4.0 | 0.00 | 0.06 | 0.04 | 25 | 1016.3 |
| 20260830225714 | 81 | 63 | 0.0 | 2.0 | 0.00 | 0.06 | 0.04 | 28 | 1016.2 |
| 20260830225228 | 81 | 63 | 0.0 | 2.0 | 0.00 | 0.06 | 0.04 | 25 | 1016.4 |
| 20260830224726 | 81 | 63 | 0.0 | 2.0 | 0.00 | 0.06 | 0.04 | 26 | 1016.3 |
| 20260830224240 | 81 | 63 | 1.0 | 5.0 | 0.00 | 0.06 | 0.04 | 26 | 1016.2 |
| 20260830223753 | 81 | 63 | 3.0 | 6.0 | 0.00 | 0.06 | 0.04 | 26 | 1016.3 |
| 20260830223226 | 82 | 63 | 3.0 | 8.0 | 0.00 | 0.06 | 0.04 | 26 | 1016.5 |
| 20260830222720 | 82 | 63 | 4.0 | 8.0 | 0.00 | 0.06 | 0.04 | 26 | 1016.6 |
| 20260830222253 | 81 | 63 | 2.0 | 8.0 | 0.00 | 0.06 | 0.04 | 30 | 1016.6 |
| 20260830221725 | 81 | 63 | 4.0 | 8.0 | 0.00 | 0.06 | 0.04 | 30 | 1016.7 |
| 20260830221219 | 82 | 63 | 2.0 | 5.0 | 0.00 | 0.06 | 0.04 | 30 | 1016.7 |
| 20260830220733 | 81 | 63 | 2.0 | 5.0 | 0.00 | 0.06 | 0.04 | 31 | 1016.8 |
| 20260830220227 | 80 | 63 | 0.0 | 3.0 | 0.00 | 0.06 | 0.04 | 35 | 1016.9 |
| 20260830215744 | 78 | 63 | 0.0 | 4.0 | 0.00 | 0.06 | 0.04 | 41 | 1017.1 |
| 20260830215218 | 77 | 63 | 2.0 | 4.0 | 0.00 | 0.06 | 0.04 | 40 | 1017.1 |
| 20260830214732 | 77 | 63 | 1.0 | 2.0 | 0.00 | 0.06 | 0.04 | 38 | 1017.1 |
| 20260830214225 | 77 | 63 | 0.0 | 4.0 | 0.00 | 0.06 | 0.04 | 37 | 1017.2 |
| 20260830213719 | 78 | 63 | 0.0 | 4.0 | 0.00 | 0.06 | 0.04 | 39 | 1017.2 |
| 20260830213214 | 78 | 63 | 1.0 | 3.0 | 0.00 | 0.06 | 0.04 | 39 | 1017.3 |
| 20260830212727 | 77 | 63 | 0.0 | 2.0 | 0.00 | 0.06 | 0.04 | 36 | 1017.3 |
| 20260830212221 | 78 | 63 | 1.0 | 4.0 | 0.00 | 0.06 | 0.04 | 34 | 1017.4 |
| 20260830211720 | 78 | 63 | 2.0 | 5.0 | 0.00 | 0.06 | 0.04 | 36 | 1017.5 |
| 20260830211214 | 79 | 63 | 2.0 | 8.0 | 0.00 | 0.06 | 0.04 | 38 | 1017.4 |
| 20260830210728 | 79 | 63 | 3.0 | 8.0 | 0.00 | 0.06 | 0.04 | 36 | 1017.5 |
| 20260830210223 | 80 | 63 | 3.0 | 8.0 | 0.00 | 0.06 | 0.04 | 37 | 1017.5 |
| 20260830205717 | 78 | 63 | 2.0 | 8.0 | 0.00 | 0.18 | 0.04 | 38 | 1017.6 |
| 20260830205231 | 78 | 63 | 4.0 | 6.0 | 0.00 | 0.18 | 0.04 | 39 | 1017.7 |
| 20260830204725 | 79 | 63 | 1.0 | 4.0 | 0.00 | 0.18 | 0.04 | 40 | 1017.8 |
| 20260830204223 | 78 | 63 | 1.0 | 4.0 | 0.00 | 0.18 | 0.04 | 42 | 1017.8 |
| 20260830203717 | 78 | 63 | 0.0 | 3.0 | 0.00 | 0.18 | 0.04 | 41 | 1017.8 |
| 20260830203251 | 79 | 63 | 1.0 | 5.0 | 0.00 | 0.18 | 0.04 | 41 | 1017.8 |
| 20260830202724 | 78 | 63 | 1.0 | 9.0 | 0.00 | 0.18 | 0.04 | 42 | 1017.9 |
| 20260830202218 | 78 | 63 | 3.0 | 9.0 | 0.00 | 0.18 | 0.04 | 42 | 1017.9 |
| 20260830201732 | 78 | 63 | 3.0 | 6.0 | 0.00 | 0.18 | 0.04 | 44 | 1017.9 |
| 20260830201226 | 78 | 63 | 3.0 | 6.0 | 0.00 | 0.18 | 0.04 | 41 | 1018.0 |
| 20260830200739 | 78 | 63 | 3.0 | 6.0 | 0.00 | 0.18 | 0.04 | 46 | 1018.1 |
| 20260830200213 | 77 | 63 | 3.0 | 8.0 | 0.00 | 0.18 | 0.04 | 44 | 1018.0 |
| 20260830195727 | 77 | 63 | 4.0 | 8.0 | 0.00 | 0.19 | 0.04 | 44 | 1018.1 |
| 20260830195225 | 77 | 63 | 4.0 | 8.0 | 0.00 | 0.19 | 0.04 | 44 | 1018.1 |
| 20260830194719 | 77 | 63 | 4.0 | 8.0 | 0.00 | 0.19 | 0.04 | 43 | 1018.1 |
| 20260830194253 | 77 | 63 | 3.0 | 9.0 | 0.00 | 0.19 | 0.04 | 46 | 1018.2 |
| 20260830193746 | 77 | 63 | 3.0 | 9.0 | 0.00 | 0.19 | 0.04 | 47 | 1018.3 |
| 20260830193219 | 77 | 63 | 6.0 | 9.0 | 0.00 | 0.19 | 0.04 | 48 | 1018.3 |
| 20260830192733 | 76 | 63 | 3.0 | 10.0 | 0.00 | 0.19 | 0.04 | 49 | 1018.3 |
| 20260830192227 | 75 | 63 | 4.0 | 10.0 | 0.00 | 0.19 | 0.04 | 52 | 1018.5 |
| 20260830191721 | 76 | 67 | 4.0 | 10.0 | 0.00 | 0.19 | 0.04 | 53 | 1018.6 |
| 20260830191235 | 75 | 67 | 4.0 | 10.0 | 0.00 | 0.19 | 0.04 | 50 | 1018.6 |
| 20260830190732 | 76 | 67 | 6.0 | 10.0 | 0.00 | 0.19 | 0.04 | 50 | 1018.7 |
| 20260830190227 | 76 | 77 | 5.0 | 10.0 | 0.00 | 0.19 | 0.04 | 54 | 1018.8 |
| 20260830185720 | 74 | 84 | 4.0 | 9.0 | 0.00 | 0.19 | 0.04 | 56 | 1018.9 |
| 20260830185215 | 72 | 97 | 1.0 | 6.0 | 0.00 | 0.19 | 0.04 | 54 | 1019.0 |
| 20260830184729 | 72 | 97 | 3.0 | 6.0 | 0.00 | 0.19 | 0.04 | 57 | 1019.0 |
| 20260830184223 | 72 | 97 | 2.0 | 6.0 | 0.00 | 0.19 | 0.04 | 56 | 1019.2 |
| 20260830183716 | 72 | 97 | 2.0 | 6.0 | 0.00 | 0.19 | 0.04 | 56 | 1019.2 |
| 20260830183214 | 73 | 97 | 2.0 | 7.0 | 0.00 | 0.19 | 0.04 | 57 | 1019.1 |
| 20260830182729 | 71 | 97 | 3.0 | 8.0 | 0.00 | 0.19 | 0.04 | 58 | 1019.2 |
| 20260830182222 | 71 | 97 | 2.0 | 8.0 | 0.00 | 0.19 | 0.04 | 58 | 1019.2 |
| 20260830181715 | 72 | 101 | 3.0 | 7.0 | 0.00 | 0.19 | 0.04 | 57 | 1019.3 |
| 20260830181249 | 71 | 103 | 3.0 | 6.0 | 0.00 | 0.19 | 0.04 | 58 | 1019.3 |
| 20260830180722 | 71 | 103 | 0.0 | 6.0 | 0.00 | 0.19 | 0.04 | 59 | 1019.4 |
| 20260830180218 | 71 | 105 | 1.0 | 4.0 | 0.00 | 0.19 | 0.04 | 62 | 1019.3 |
| 20260830175732 | 70 | 105 | 1.0 | 6.0 | 0.00 | 0.21 | 0.04 | 61 | 1019.3 |
| 20260830175224 | 70 | 105 | 3.0 | 6.0 | 0.00 | 0.21 | 0.04 | 60 | 1019.3 |
| 20260830174717 | 69 | 105 | 2.0 | 4.0 | 0.00 | 0.21 | 0.04 | 62 | 1019.3 |
| 20260830174236 | 69 | 105 | 2.0 | 4.0 | 0.00 | 0.21 | 0.04 | 62 | 1019.4 |
| 20260830173748 | 70 | 105 | 3.0 | 6.0 | 0.00 | 0.21 | 0.04 | 63 | 1019.3 |
| 20260830173221 | 68 | 184 | 2.0 | 6.0 | 0.00 | 0.21 | 0.04 | 64 | 1019.3 |
| 20260830172715 | 68 | 184 | 3.0 | 7.0 | 0.00 | 0.21 | 0.04 | 65 | 1019.4 |
| 20260830172230 | 68 | 184 | 4.0 | 7.0 | 0.00 | 0.21 | 0.04 | 67 | 1019.4 |
| 20260830171724 | 67 | 186 | 3.0 | 6.0 | 0.00 | 0.21 | 0.04 | 68 | 1019.4 |
| 20260830171218 | 67 | 186 | 4.0 | 7.0 | 0.00 | 0.21 | 0.04 | 67 | 1019.4 |
| 20260830170731 | 67 | 189 | 3.0 | 7.0 | 0.00 | 0.21 | 0.04 | 67 | 1019.3 |
| 20260830170226 | 67 | 189 | 3.0 | 8.0 | 0.00 | 0.21 | 0.04 | 66 | 1019.3 |
| 20260830165724 | 68 | 189 | 5.0 | 8.0 | 0.00 | 0.21 | 0.04 | 65 | 1019.3 |
| 20260830165218 | 68 | 184 | 3.0 | 5.0 | 0.00 | 0.21 | 0.04 | 65 | 1019.2 |
| 20260830164732 | 68 | 184 | 3.0 | 5.0 | 0.00 | 0.21 | 0.04 | 66 | 1019.0 |
| 20260830164246 | 68 | 184 | 3.0 | 5.0 | 0.00 | 0.21 | 0.04 | 64 | 1019.1 |
| 20260830163718 | 70 | 184 | 3.0 | 9.0 | 0.00 | 0.21 | 0.04 | 60 | 1019.1 |
| 20260830163233 | 71 | 184 | 3.0 | 9.0 | 0.00 | 0.21 | 0.04 | 49 | 1019.1 |
| 20260830162727 | 70 | 184 | 5.0 | 10.0 | 0.00 | 0.21 | 0.04 | 50 | 1019.0 |
| 20260830162221 | 70 | 184 | 6.0 | 12.0 | 0.00 | 0.21 | 0.04 | 49 | 1019.0 |
| 20260830161718 | 71 | 186 | 5.0 | 12.0 | 0.00 | 0.21 | 0.04 | 52 | 1019.0 |
| 20260830161232 | 71 | 188 | 8.0 | 12.0 | 0.00 | 0.21 | 0.04 | 50 | 1018.8 |
| 20260830160746 | 71 | 184 | 9.0 | 12.0 | 0.00 | 0.21 | 0.04 | 50 | 1018.6 |
| 20260830160221 | 70 | 180 | 4.0 | 15.0 | 0.00 | 0.21 | 0.04 | 54 | 1018.6 |
| 20260830155714 | 70 | 181 | 7.0 | 15.0 | 0.00 | 0.21 | 0.04 | 52 | 1018.6 |
| 20260830155229 | 70 | 166 | 8.0 | 16.0 | 0.00 | 0.21 | 0.04 | 53 | 1018.6 |
| 20260830154742 | 69 | 166 | 6.0 | 10.0 | 0.00 | 0.21 | 0.04 | 59 | 1018.6 |
| 20260830154215 | 68 | 166 | 5.0 | 7.0 | 0.00 | 0.21 | 0.04 | 61 | 1018.6 |
| 20260830153713 | 67 | 166 | 5.0 | 6.0 | 0.00 | 0.21 | 0.04 | 63 | 1018.6 |
| 20260830153227 | 67 | 166 | 3.0 | 6.0 | 0.00 | 0.21 | 0.04 | 65 | 1018.7 |
| 20260830152721 | 67 | 166 | 2.0 | 6.0 | 0.00 | 0.21 | 0.04 | 65 | 1018.7 |
| 20260830152235 | 66 | 166 | 0.0 | 0.0 | 0.00 | 0.21 | 0.04 | 66 | 1018.7 |
| 20260830151728 | 65 | 166 | 0.0 | 0.0 | 0.00 | 0.21 | 0.04 | 65 | 1019.0 |
| 20260830151222 | 65 | 166 | 0.0 | 0.0 | 0.00 | 0.21 | 0.04 | 68 | 1018.8 |
| 20260830150715 | 64 | 166 | 0.0 | 2.0 | 0.00 | 0.21 | 0.04 | 70 | 1018.6 |
| 20260830150231 | 63 | 166 | 0.0 | 3.0 | 0.00 | 0.21 | 0.04 | 70 | 1018.7 |
| 20260830145723 | 63 | 166 | 0.0 | 5.0 | 0.00 | 0.21 | 0.04 | 69 | 1018.8 |
| 20260830145217 | 63 | 166 | 4.0 | 5.0 | 0.00 | 0.21 | 0.04 | 69 | 1018.7 |
| 20260830144715 | 63 | 167 | 1.0 | 3.0 | 0.00 | 0.21 | 0.04 | 69 | 1018.7 |
| 20260830144229 | 63 | 166 | 1.0 | 2.0 | 0.00 | 0.21 | 0.04 | 69 | 1018.8 |
| 20260830143723 | 63 | 166 | 0.0 | 5.0 | 0.00 | 0.21 | 0.04 | 68 | 1018.8 |
| 20260830143217 | 63 | 167 | 0.0 | 6.0 | 0.00 | 0.21 | 0.04 | 68 | 1018.5 |
| 20260830142731 | 63 | 166 | 4.0 | 6.0 | 0.00 | 0.21 | 0.04 | 68 | 1018.5 |
| 20260830142224 | 63 | 166 | 0.0 | 0.0 | 0.00 | 0.21 | 0.04 | 69 | 1018.3 |
| 20260830141718 | 63 | 166 | 0.0 | 1.0 | 0.00 | 0.21 | 0.04 | 69 | 1018.3 |
| 20260830141216 | 63 | 166 | 0.0 | 2.0 | 0.00 | 0.21 | 0.04 | 68 | 1018.2 |
| 20260830140729 | 63 | 166 | 0.0 | 5.0 | 0.00 | 0.21 | 0.04 | 68 | 1018.2 |
| 20260830140221 | 63 | 166 | 3.0 | 5.0 | 0.00 | 0.21 | 0.04 | 69 | 1018.1 |
| 20260830135714 | 62 | 166 | 0.0 | 2.0 | 0.00 | 0.21 | 0.04 | 70 | 1018.1 |
| 20260830135227 | 62 | 166 | 0.0 | 2.0 | 0.00 | 0.21 | 0.04 | 71 | 1018.2 |
| 20260830134742 | 62 | 166 | 0.0 | 3.0 | 0.00 | 0.21 | 0.04 | 71 | 1018.1 |
| 20260830134215 | 62 | 166 | 1.0 | 5.0 | 0.00 | 0.21 | 0.04 | 72 | 1018.0 |
| 20260830133729 | 62 | 166 | 0.0 | 5.0 | 0.00 | 0.21 | 0.04 | 71 | 1018.0 |
| 20260830133224 | 61 | 167 | 3.0 | 5.0 | 0.00 | 0.21 | 0.04 | 72 | 1018.1 |
| 20260830132718 | 61 | 166 | 2.0 | 6.0 | 0.00 | 0.21 | 0.04 | 72 | 1018.0 |
| 20260830132216 | 61 | 167 | 2.0 | 6.0 | 0.00 | 0.21 | 0.04 | 72 | 1017.9 |
| 20260830131731 | 61 | 166 | 0.0 | 0.0 | 0.00 | 0.21 | 0.04 | 73 | 1017.7 |
| 20260830131225 | 61 | 166 | 0.0 | 0.0 | 0.00 | 0.21 | 0.04 | 72 | 1017.6 |
| 20260830130719 | 61 | 166 | 0.0 | 2.0 | 0.00 | 0.21 | 0.04 | 72 | 1017.5 |
| 20260830130214 | 61 | 166 | 1.0 | 3.0 | 0.00 | 0.21 | 0.04 | 72 | 1017.5 |
| 20260830125728 | 61 | 167 | 3.0 | 6.0 | 0.00 | 0.21 | 0.04 | 72 | 1017.5 |
| 20260830125222 | 61 | 166 | 4.0 | 6.0 | 0.00 | 0.21 | 0.04 | 72 | 1017.4 |
| 20260830124720 | 61 | 166 | 5.0 | 6.0 | 0.00 | 0.21 | 0.04 | 73 | 1017.4 |
| 20260830124234 | 61 | 166 | 2.0 | 3.0 | 0.00 | 0.21 | 0.04 | 72 | 1017.3 |
| 20260830123727 | 61 | 167 | 1.0 | 5.0 | 0.00 | 0.21 | 0.04 | 72 | 1017.4 |
| 20260830123241 | 61 | 166 | 3.0 | 5.0 | 0.00 | 0.21 | 0.04 | 72 | 1017.4 |
| 20260830122714 | 61 | 166 | 4.0 | 5.0 | 0.00 | 0.21 | 0.04 | 72 | 1017.4 |
| 20260830122227 | 61 | 167 | 1.0 | 4.0 | 0.00 | 0.21 | 0.04 | 72 | 1017.4 |
| 20260830121720 | 61 | 167 | 0.0 | 3.0 | 0.00 | 0.21 | 0.04 | 72 | 1017.2 |
| 20260830121214 | 61 | 167 | 2.0 | 4.0 | 0.00 | 0.21 | 0.04 | 73 | 1017.2 |
| 20260830120728 | 61 | 167 | 0.0 | 0.0 | 0.00 | 0.21 | 0.04 | 73 | 1017.1 |
| 20260830120244 | 61 | 166 | 0.0 | 0.0 | 0.00 | 0.21 | 0.04 | 73 | 1017.0 |
| 20260830115720 | 61 | 167 | 0.0 | 0.0 | 0.00 | 0.21 | 0.04 | 73 | 1016.9 |
| 20260830115214 | 60 | 167 | 0.0 | 0.0 | 0.00 | 0.21 | 0.04 | 73 | 1016.9 |
| 20260830114728 | 60 | 166 | 0.0 | 1.0 | 0.00 | 0.21 | 0.04 | 73 | 1016.8 |
| 20260830114222 | 60 | 167 | 0.0 | 1.0 | 0.00 | 0.21 | 0.04 | 73 | 1016.7 |
| 20260830113716 | 60 | 166 | 0.0 | 1.0 | 0.00 | 0.21 | 0.04 | 73 | 1016.5 |
| 20260830113250 | 60 | 166 | 0.0 | 0.0 | 0.00 | 0.21 | 0.04 | 72 | 1016.5 |
| 20260830112723 | 60 | 166 | 0.0 | 3.0 | 0.00 | 0.21 | 0.04 | 72 | 1016.4 |
| 20260830112218 | 60 | 167 | 0.0 | 5.0 | 0.00 | 0.21 | 0.04 | 72 | 1016.4 |
| 20260830111730 | 60 | 167 | 3.0 | 5.0 | 0.00 | 0.21 | 0.04 | 73 | 1016.4 |
| 20260830111244 | 60 | 167 | 0.0 | 5.0 | 0.00 | 0.21 | 0.04 | 72 | 1016.4 |
| 20260830110720 | 60 | 166 | 1.0 | 5.0 | 0.00 | 0.21 | 0.04 | 72 | 1016.3 |
| 20260830110217 | 61 | 167 | 4.0 | 7.0 | 0.00 | 0.21 | 0.04 | 72 | 1016.3 |
| 20260830105731 | 60 | 166 | 3.0 | 8.0 | 0.00 | 0.21 | 0.04 | 72 | 1016.3 |
| 20260830105225 | 60 | 166 | 6.0 | 8.0 | 0.00 | 0.21 | 0.04 | 73 | 1016.3 |
| 20260830104718 | 60 | 166 | 6.0 | 7.0 | 0.00 | 0.21 | 0.04 | 73 | 1016.3 |
| 20260830104231 | 60 | 166 | 6.0 | 7.0 | 0.00 | 0.21 | 0.04 | 74 | 1016.2 |
| 20260830103725 | 60 | 166 | 3.0 | 5.0 | 0.00 | 0.21 | 0.04 | 73 | 1016.3 |
| 20260830103239 | 60 | 166 | 1.0 | 2.0 | 0.00 | 0.21 | 0.04 | 73 | 1016.4 |
| 20260830102715 | 61 | 166 | 1.0 | 6.0 | 0.00 | 0.21 | 0.04 | 72 | 1016.4 |